Weather History for Sheldon, IA

Change the Weather History Date:

Tuesday, April 9, 2013

  Actual Average Record
Temperature  
Mean Temperature 36 °F -  
Max Temperature 41 °F 53 °F 87 °F (1977)
Min Temperature 30 °F 30 °F 10 °F (1997)
Degree Days  
Heating Degree Days 30    
Moisture  
Dew Point 35 °F    
Average Humidity 100    
Maximum Humidity 100    
Minimum Humidity 100    
Precipitation  
Precipitation 1.06 in - - ()
Sea Level Pressure  
Sea Level Pressure 29.90 in    
Wind  
Wind Speed 28 mph (NNE)    
Max Wind Speed 39 mph    
Max Gust Speed 53 mph    
Visibility 4 miles    
Events Rain    
Averages and records for this station are not official NWS values.
T = Trace of Precipitation, MM = Missing Value Source: NWS Daily Summary

Daily Weather History Graph

Daily Weather History Graph

Search for Another Location

Airport:

Trip Planner

Search our weather history database for the weather conditions in past years. The results will help you decide how hot, cold, wet, or windy it might be!

Date:

Astronomy

Apr. 09, 2013 Rise Set
Actual Time 6:50 AM CDT 7:59 PM CDT
Civil Twilight 6:21 AM CDT 8:28 PM CDT
Nautical Twilight 5:46 AM CDT 9:03 PM CDT
Astronomical Twilight 5:10 AM CDT 9:40 PM CDT
Moon 6:14 AM CDT (4/9) 7:36 PM CDT (4/9)
Length of Visible Light 14h 07m
Length of Day
13h 08m
Waning Crescent, 1% of the Moon is Illuminated
Apr 9
Waning Crescent
Apr 10
New
Apr 18
First Quarter
Apr 25
Full
May 2
Last Quarter

Hourly Weather History & Observations

Time (CDT) Temp. Windchill Dew Point Humidity Pressure Visibility Wind Dir Wind Speed Gust Speed Precip Events Conditions
12:15 AM 41.0 °F 30.5 °F 41.0 °F 100% 29.85 in 2.0 mi NE 26.5 mph 35.7 mph N/A   Overcast
12:35 AM 41.0 °F 30.7 °F 41.0 °F 100% 29.87 in 3.0 mi NE 25.3 mph 36.8 mph N/A   Overcast
12:55 AM 41.0 °F 29.7 °F 41.0 °F 100% 29.85 in 3.0 mi NE 31.1 mph 38.0 mph N/A   Overcast
1:15 AM 41.0 °F 29.7 °F 41.0 °F 100% 29.83 in 3.0 mi NE 31.1 mph 43.7 mph N/A   Overcast
1:35 AM 41.0 °F 29.5 °F 41.0 °F 100% 29.82 in 4.0 mi NE 32.2 mph 41.4 mph N/A   Overcast
1:55 AM 39.2 °F 28.3 °F 39.2 °F 100% 29.83 in 3.0 mi NE 25.3 mph 38.0 mph N/A   Overcast
2:15 AM 39.2 °F 26.8 °F 39.2 °F 100% 29.82 in 4.0 mi NE 33.4 mph 42.6 mph N/A   Overcast
2:35 AM 39.2 °F 28.3 °F 39.2 °F 100% 29.84 in 6.0 mi NE 25.3 mph 34.5 mph N/A   Overcast
2:55 AM 39.2 °F 28.5 °F 39.2 °F 100% 29.86 in 7.0 mi NE 24.2 mph 35.7 mph N/A   Overcast
3:15 AM 39.2 °F 27.0 °F 39.2 °F 100% 29.85 in 2.0 mi NE 32.2 mph 43.7 mph N/A   Overcast
3:35 AM 39.2 °F 27.6 °F 39.2 °F 100% 29.82 in 4.0 mi NE 28.8 mph 44.9 mph N/A   Overcast
3:55 AM 39.2 °F 27.8 °F 39.2 °F 100% 29.83 in 8.0 mi NE 27.6 mph 38.0 mph 0.08 in Rain Light Rain
4:15 AM 39.2 °F 26.8 °F 39.2 °F 100% 29.80 in 9.0 mi NE 33.4 mph 43.7 mph N/A   Overcast
4:35 AM 39.2 °F 27.0 °F 39.2 °F 100% 29.80 in 10.0 mi NE 32.2 mph 39.1 mph N/A   Overcast
4:55 AM 39.2 °F 26.8 °F 39.2 °F 100% 29.78 in 8.0 mi NE 33.4 mph 43.7 mph N/A Rain Light Rain
5:15 AM 39.2 °F 26.6 °F 39.2 °F 100% 29.81 in 5.0 mi NE 34.5 mph 44.9 mph N/A Rain Light Rain
5:35 AM 37.4 °F 24.0 °F 37.4 °F 100% 29.79 in 7.0 mi NE 35.7 mph 43.7 mph N/A Rain Light Rain
5:55 AM 37.4 °F 23.8 °F 37.4 °F 100% 29.77 in 5.0 mi NE 36.8 mph 48.3 mph 0.04 in   Overcast
6:15 AM 37.4 °F 23.6 °F 37.4 °F 100% 29.78 in 4.0 mi NE 38.0 mph 47.2 mph N/A   Overcast
6:35 AM 35.6 °F 21.3 °F 35.6 °F 100% 29.78 in 2.5 mi NE 36.8 mph 49.5 mph N/A   Overcast
7:15 AM 35.6 °F 21.1 °F 35.6 °F 100% 29.78 in 2.5 mi NE 38.0 mph 49.5 mph N/A   Overcast
7:35 AM 35.6 °F 23.0 °F 35.6 °F 100% 29.83 in 2.5 mi NNE 27.6 mph 42.6 mph N/A   Overcast
7:55 AM 35.6 °F 21.0 °F 35.6 °F 100% 29.80 in 1.5 mi NE 39.1 mph 47.2 mph 0.24 in   Overcast
8:15 AM 35.6 °F 21.5 °F 35.6 °F 100% 29.76 in 3.0 mi NE 35.7 mph 52.9 mph N/A   Overcast
8:35 AM 35.6 °F 24.0 °F 35.6 °F 100% 29.87 in 7.0 mi NNE 23.0 mph 41.4 mph N/A Rain Light Rain
8:55 AM 33.8 °F 21.9 °F 33.8 °F 100% 29.92 in 6.0 mi NNE 21.9 mph 34.5 mph 0.03 in   Overcast
9:15 AM 33.8 °F 21.3 °F 33.8 °F 100% 29.88 in 3.0 mi NNE 24.2 mph 36.8 mph N/A   Overcast
9:35 AM 33.8 °F 20.1 °F 33.8 °F 100% 29.89 in 6.0 mi NE 29.9 mph 36.8 mph N/A   Overcast
9:55 AM 33.8 °F 19.6 °F 33.8 °F 100% 29.87 in 9.0 mi NE 32.2 mph 41.4 mph 0.04 in Rain Light Rain
10:15 AM 33.8 °F 19.0 °F 33.8 °F 100% 29.87 in 10.0 mi NNE 35.7 mph 44.9 mph N/A   Overcast
10:35 AM 33.8 °F 20.1 °F 33.8 °F 100% 29.89 in 9.0 mi NE 29.9 mph 42.6 mph N/A   Overcast
10:55 AM 33.8 °F 19.9 °F 33.8 °F 100% 29.89 in 2.0 mi NE 31.1 mph 46.0 mph 0.01 in   Overcast
11:15 AM 33.8 °F 19.0 °F 33.8 °F 100% 29.89 in 1.8 mi NE 35.7 mph 43.7 mph N/A   Overcast
11:35 AM 33.8 °F 20.8 °F 33.8 °F 100% 29.92 in 3.0 mi NNE 26.5 mph 41.4 mph N/A Rain Light Rain
11:55 AM 32.0 °F 17.9 °F 32.0 °F 100% 29.92 in 4.0 mi NNE 28.8 mph 36.8 mph 0.02 in Rain Light Rain
12:15 PM 32.0 °F 18.6 °F 32.0 °F 100% 29.94 in 3.0 mi NNE 25.3 mph 33.4 mph N/A Rain Light Rain
12:35 PM 32.0 °F 20.1 °F 32.0 °F 100% 29.98 in 1.8 mi NNE 19.6 mph 29.9 mph N/A   Overcast
12:55 PM 32.0 °F 19.2 °F 32.0 °F 100% 29.97 in 1.0 mi NNE 23.0 mph 29.9 mph 0.03 in   Overcast
1:15 PM 32.0 °F 17.9 °F 32.0 °F 100% 29.94 in 1.5 mi NNE 28.8 mph 36.8 mph N/A   Overcast
1:35 PM 32.0 °F 17.9 °F 32.0 °F 100% 29.93 in 2.0 mi NNE 28.8 mph 41.4 mph N/A   Overcast
1:55 PM 32.0 °F 17.9 °F 32.0 °F 100% 29.95 in 4.0 mi NNE 28.8 mph 35.7 mph 0.02 in   Light Drizzle
2:15 PM 32.0 °F 18.4 °F 32.0 °F 100% 29.97 in 5.0 mi NNE 26.5 mph - N/A   Overcast
2:35 PM 32.0 °F 18.1 °F 32.0 °F 100% 29.98 in 6.0 mi NNE 27.6 mph 33.4 mph N/A   Overcast
2:55 PM 32.0 °F 18.4 °F 32.0 °F 100% 29.99 in 3.0 mi NNE 26.5 mph - N/A   Overcast
3:15 PM 32.0 °F 18.9 °F 32.0 °F 100% 29.99 in 1.8 mi NNE 24.2 mph 29.9 mph N/A Rain Light Rain
3:35 PM 32.0 °F 20.5 °F 32.0 °F 100% 30.02 in 1.8 mi North 18.4 mph 29.9 mph N/A Rain Light Rain
3:55 PM 30.2 °F 15.4 °F 30.2 °F 100% 29.95 in 2.0 mi NNE 28.8 mph 35.7 mph N/A   Overcast
4:15 PM 30.2 °F 15.9 °F 30.2 °F 100% 29.92 in 2.5 mi NNE 26.5 mph 40.3 mph N/A Rain Light Freezing Rain
4:35 PM 30.2 °F 15.4 °F 30.2 °F 100% 29.95 in 5.0 mi NNE 28.8 mph 34.5 mph N/A Rain Light Freezing Rain
4:55 PM 30.2 °F 14.3 °F 30.2 °F 100% 29.90 in 7.0 mi NNE 34.5 mph - N/A Rain Light Freezing Rain
5:15 PM 30.2 °F 14.5 °F 30.2 °F 100% 29.88 in 5.0 mi NNE 33.4 mph 44.9 mph N/A   Overcast
5:35 PM - - - N/A% 29.95 in 8.0 mi NNE 21.9 mph 29.9 mph N/A Rain Light Rain
5:55 PM 32.0 °F 18.6 °F 32.0 °F 100% 29.91 in 3.0 mi NE 25.3 mph 42.6 mph 0.01 in Rain Rain
6:15 PM 32.0 °F 17.2 °F 32.0 °F 100% 29.90 in 5.0 mi NNE 32.2 mph 43.7 mph N/A   Overcast
6:35 PM 32.0 °F 17.6 °F 32.0 °F 100% 29.92 in 8.0 mi NNE 29.9 mph - N/A   Overcast
6:55 PM 32.0 °F 18.6 °F 32.0 °F 100% 29.96 in 3.0 mi NNE 25.3 mph 33.4 mph 0.01 in Rain Rain
7:15 PM 32.0 °F 19.5 °F 32.0 °F 100% 29.98 in 2.5 mi NNE 21.9 mph 28.8 mph N/A Rain Rain
7:35 PM 32.0 °F 18.9 °F 32.0 °F 100% 29.94 in 3.0 mi NNE 24.2 mph 33.4 mph N/A   Overcast
7:55 PM 32.0 °F 21.2 °F 32.0 °F 100% 30.04 in 5.0 mi North 16.1 mph 24.2 mph 0.01 in Rain Light Rain
8:15 PM 32.0 °F 20.8 °F 32.0 °F 100% 30.06 in 2.5 mi North 17.3 mph - N/A Rain Heavy Rain
8:35 PM 32.0 °F 19.5 °F 32.0 °F 100% 29.99 in 2.5 mi North 21.9 mph 31.1 mph N/A Rain Light Rain
8:55 PM 32.0 °F 20.1 °F 32.0 °F 100% 30.01 in 4.0 mi NNE 19.6 mph 36.8 mph 0.19 in Rain Rain
9:15 PM 32.0 °F 20.5 °F 32.0 °F 100% 30.04 in 3.0 mi North 18.4 mph 25.3 mph N/A Rain Heavy Rain
9:55 PM 32.0 °F 20.1 °F 32.0 °F 100% 30.01 in 4.0 mi NNE 19.6 mph 31.1 mph 0.12 in Rain Rain
10:15 PM 32.0 °F 18.1 °F 32.0 °F 100% 29.99 in 4.0 mi NE 27.6 mph 33.4 mph N/A Rain Heavy Rain
10:35 PM 32.0 °F 17.9 °F 32.0 °F 100% 29.97 in 3.0 mi NE 28.8 mph 34.5 mph N/A Rain Rain
10:55 PM 33.8 °F 22.2 °F 33.8 °F 100% 30.01 in 5.0 mi NNE 20.7 mph 28.8 mph 0.18 in Rain Rain
11:15 PM 33.8 °F 21.0 °F 33.8 °F 100% 29.93 in 8.0 mi NE 25.3 mph 35.7 mph N/A Rain Light Rain
11:35 PM 33.8 °F 23.2 °F 33.8 °F 100% 30.00 in 10.0 mi NNE 17.3 mph 32.2 mph N/A   Overcast
11:55 PM 33.8 °F 22.8 °F 33.8 °F 100% 30.00 in 10.0 mi NNE 18.4 mph 25.3 mph 0.03 in   Overcast